Location: Luna
(33.8188°N, 108.9564°W)
Time: 21:56:35
(UTC+00:00)

PRISM - Visible Passes

Search period start: 20 February 2024 00:00
Search period end: 01 March 2024 00:00
Orbit: 516 x 533 km, 98.2° (Epoch: 19 February)

Date Brightness Start Highest point End Pass type
(mag) Time Alt. Az. Time Alt. Az. Time Alt. Az.
20 Feb ? 01:44:08 12° ENE 01:44:27 12° ENE 01:45:56 10° NE visible
20 Feb ? 03:19:19 30° WNW 03:19:19 30° WNW 03:21:48 10° NNW visible
21 Feb ? 03:07:00 44° NW 03:07:00 44° NW 03:09:55 10° NNW visible
22 Feb ? 02:54:39 63° NNW 02:54:39 63° NNW 02:57:55 10° NNW visible
23 Feb ? 02:42:17 60° NE 02:42:17 60° NE 02:45:47 10° N visible
24 Feb ? 02:29:53 42° ENE 02:29:53 42° ENE 02:33:32 10° N visible
25 Feb ? 02:17:28 28° E 02:17:46 29° ENE 02:21:07 10° NNE visible
25 Feb ? 03:52:37 14° W 03:52:37 14° W 03:54:08 10° WNW visible
26 Feb ? 02:05:00 19° E 02:05:40 20° ENE 02:08:32 10° NNE visible
26 Feb ? 03:40:10 21° W 03:40:10 21° W 03:42:38 10° NW visible
27 Feb ? 01:52:31 13° E 01:53:32 14° ENE 01:55:39 10° NE visible
27 Feb ? 03:27:41 30° W 03:27:41 30° W 03:30:47 10° NW visible
28 Feb ? 03:15:10 45° W 03:15:10 45° W 03:18:46 10° NNW visible
29 Feb ? 03:02:38 70° WSW 03:02:44 70° WSW 03:06:35 10° NNW visible
